KOREASAT 5 (MUGUNGWHA 5)

Last updated on Sun Jun 21 2026 00:03:04 GMT+0000 (Coordinated Universal Time)

1 29349U 06034A 26171.41438541 -.00000363 00000+0 00000+0 0 9998 2 29349 1.7946 82.9602 0001386 50.6116 37.2889 1.00272700 41359
UTC large
Height (km)
Speed (km/s)
/
Latitude / Longitude
Inclination (degrees)
Orbital Period (minutes)
Azimuth
Elevation
Range (km)
Doppler Factor

Next 0 passes for location: London (51.5072 / 0.1276)

No passes found over London.
KOREASAT 5 (MUGUNGWHA 5)